Location: Navajo
(48.7922°N, 105.0603°W)
Time: 13:57:59
(UTC+00:00)

CUTE 1.7 + AOD 2 - Visible Passes

Search period start: 25 June 2022 00:00
Search period end: 05 July 2022 00:00
Orbit: 591 x 607 km, 97.7° (Epoch: 24 June)

Date Brightness Start Highest point End Pass type
(mag) Time Alt. Az. Time Alt. Az. Time Alt. Az.
28 Jun ? 09:40:12 10° ENE 09:42:04 13° E 09:43:56 10° ESE visible
29 Jun ? 09:50:21 10° NE 09:53:00 16° E 09:55:39 10° SE visible
30 Jun ? 10:00:45 10° NE 10:03:55 20° E 10:07:04 10° SE visible
01 Jul ? 10:11:16 10° NE 10:14:49 26° E 10:18:20 10° SSE visible
